Main page
METAR-TAF:

METAR-TAF

Airports :

Sirri, Iran

Sirri Island Airport

latitude: 25-54-34N, longitude: 054-32-22E, elevation: 13 m

Current weather observation

The report was made 54 minutes ago, at 04:00 UTC
Wind 16 kt from the East/Southeast
Temperature 34°C
Humidity 63%
Pressure 1003 hPa
Visibility: 8000 m

METAR: OIBS 240400Z 12016KT 8000 NSC 34/26 Q1003

Time: 09:24 (04:54 UTC)


TAF: missing

Weather observations and forecasts of more than 4000 airports (METAR and TAF reports).

The available stations are represented by yellow and red dots on the map.

Hover mouse over dot to see the name of the station.

Then click to see weather observations and forecasts.

To change the map : click on the green buttons with a black cross to zoom in, on the green button with a dash to zoom out, or on the green arrows for adjacent maps.


METAR-TAF: